Location: ?????
(54.9266°N, 38.5527°E)
Time: 20:45:07
(UTC+00:00)

deb REX - Visible Passes

Search period start: 19 September 2024 00:00
Search period end: 29 September 2024 00:00
Orbit: 707 x 730 km, 89.8° (Epoch: 19 September)

Date Brightness Start Highest point End Pass type
(mag) Time Alt. Az. Time Alt. Az. Time Alt. Az.
19 Sep ? 02:06:17 10° NNE 02:10:06 22° ENE 02:13:52 10° SE visible
19 Sep ? 16:40:27 10° SW 16:44:31 25° WNW 16:48:34 10° NNW visible
20 Sep ? 01:18:37 10° ENE 01:18:41 10° ENE 01:18:46 10° ENE visible
20 Sep ? 17:32:54 10° WNW 17:33:45 10° WNW 17:34:36 10° NW visible
21 Sep ? 02:03:57 10° NNE 02:07:57 25° ENE 02:11:54 10° SE visible
21 Sep ? 16:38:28 10° SW 16:42:21 23° WNW 16:46:15 10° NNW visible
22 Sep ? 01:15:07 10° NE 01:16:34 11° ENE 01:18:01 10° E visible
23 Sep ? 02:01:37 10° NNE 02:05:46 27° ENE 02:09:52 10° SE visible
23 Sep ? 16:36:30 10° WSW 16:40:11 21° WNW 16:43:52 10° NNW visible
24 Sep ? 01:12:23 10° NE 01:14:25 12° ENE 01:16:27 10° E visible
24 Sep ? 15:44:22 10° SSW 15:49:04 45° W 15:53:47 10° N visible
25 Sep ? 01:59:16 10° NNE 02:03:33 30° E 02:07:47 10° SE visible
25 Sep ? 16:34:31 10° WSW 16:37:59 19° WNW 16:41:27 10° NNW visible
26 Sep ? 01:09:46 10° NE 01:12:14 14° ENE 01:14:42 10° E visible
26 Sep ? 15:42:12 10° SSW 15:46:50 41° W 15:51:27 10° NNW visible
27 Sep ? 01:56:55 10° NNE 02:01:18 33° E 02:05:40 10° SE visible
27 Sep ? 16:32:34 10° WSW 16:35:46 17° WNW 16:38:59 10° NNW visible
28 Sep ? 01:07:13 10° NE 01:10:02 15° ENE 01:12:50 10° ESE visible
28 Sep ? 02:45:03 10° N 02:49:56 84° E 02:54:47 10° S visible
28 Sep ? 15:40:01 10° SSW 15:44:33 37° W 15:49:05 10° NNW visible
